Weather Roundup
Issued by NWS Chicago, IL

Home | Current Version | Previous Version | Graphics & Text | Print | Product List | Glossary On
Versions: 1 2 3 4 5 6 7 8 9 10 11 12 13 14 15 16 17 18 19 20 21 22 23 24 25 26 27 28 29 30 31 32 33 34 35 36 37 38 39 40 41 42 43 44 45 46 47 48 49 50
000
NZUS59 KLOT 241803
HRRLOT

CHICAGO AREA WEATHER ROUNDUP
NATIONAL WEATHER SERVICE CHICAGO/ROMEOVILLE IL
1200 PM CST FRI FEB 24 2017

NOTE: "FAIR" INDICATES FEW OR NO CLOUDS BELOW 12,000 FEET WITH NO
SIGNIFICANT WEATHER AND/OR OBSTRUCTIONS TO VISIBILITY.

* THESE STATIONS ARE NOT UNDER NWS QUALITY CONTROL. THEY ALSO MAY NOT
  REPORT WEATHER SUCH AS PRECIPITATION OR FOG.

ILZ005-006-012>014-019>023-241900-
NORTHEAST ILLINOIS

CITY           SKY/WX    TMP DP  RH WIND       PRES   REMARKS
OHARE          LGT RAIN  39  37  92 N13       29.46F FOG
6HR MIN TEMP:  39; 6HR MAX TEMP:  40; 6HR PCP:  0.05;

MIDWAY         DRIZZLE   40  37  89 N10       29.46S FOG
6HR MIN TEMP:  40; 6HR MAX TEMP:  42; 6HR PCP:  0.01;

AURORA         CLOUDY    40  38  93 NE13      29.45S
6HR MIN TEMP:  40; 6HR MAX TEMP:  41; 6HR PCP:  0.02;

LANSING*       CLOUDY    41  41 100 NE7       29.46S FOG
JOLIET*        CLOUDY    45  44  96 N7        29.44S FOG
WAUKEGAN       CLOUDY    36  35  96 N14G23    29.46F FOG
6HR MIN TEMP:  36; 6HR MAX TEMP:  37; 6HR PCP:  0.01;

DUPAGE AIRPORT LGT RAIN  39  36  89 NE13      29.45F FOG
6HR MIN TEMP:  38; 6HR MAX TEMP:  39; 6HR PCP:  0.02;

WHEELING       CLOUDY    37  35  92 N13       29.48F FOG
6HR MIN TEMP:  37; 6HR MAX TEMP:  38; 6HR PCP:  0.03;

KANKAKEE*      CLOUDY    65  57  76 SW16      29.43F
MORRIS*        CLOUDY    45  44  95 N8        29.43R FOG
LEWIS AIRPORT* CLOUDY    41  41 100 NE7       29.45R FOG
NORTHERLY ISL    N/A     38  37  97 N12         N/A
$$

WIZ051-052-058>065-066-070>072-241900-
SOUTHEAST WISCONSIN

CITY           SKY/WX    TMP DP  RH WIND       PRES   REMARKS
MILWAUKEE      LGT RAIN  36  33  89 N20G26    29.51S FOG
6HR MIN TEMP:  35; 6HR MAX TEMP:  36; 6HR PCP:  0.02;

KENOSHA*       CLOUDY    37  35  92 NE10      29.48F FOG
RACINE*        LGT RAIN  36  34  92 N14G22    29.50F FOG
WAUKESHA       CLOUDY    30  30 100 NE16G23   29.57S FOG     WCI  19
WEST BEND      CLOUDY    32  32 100 NE8       29.53S FOG     WCI  25
$$

INZ001>003-010>013-019-020-241900-
NORTHWEST INDIANA

CITY           SKY/WX    TMP DP  RH WIND       PRES   REMARKS
GARY*          FOG       41  39  93 N9        29.47S VSB 1
MICHIGAN CITY* NOT AVBL
RENSSELAER*    NOT AVBL
VALPARAISO     CLOUDY    65  57  75 SW13G23   29.44F
$$

LMZ740>746-241900-
SOUTHERN LAKE MICHIGAN

STATION/POSITION TIME  SKY/WX   TEMP WIND        PRES    VSBY
                                AIR  DIR/SP/G
                 (UTC)          (F)  (DEG/KT/KT) (MB)    (MI)
HARRISON CRIB    1740            37  340/ 17/ 19   N/A
BURNHAM HARBOR   1800            38  350/ 11/ 14   N/A
CALUMET HARBOR   1730            38  330/ 12/ 16  997.4F
BURNS HARBOR     1740            37  270/  5/  6  998.3F
MICHIGAN CITY    1740            36  220/  9/ 10   N/A
$$

ABBREVIATIONS USED IN REMARKS
   TC - TEMPERATURE IN CELSIUS
  WCI - WIND CHILL INDEX
   HX - HEAT INDEX
  VSB - VISIBILITY
$$




USA.gov is the U.S. government's official web portal to all federal, state and local government web resources and services.